Погода в Эль-Фаллудже

Ирак     33°21′39″N   43°47′11″E
темп.,
°C
ветер,
м/с
пор.,
м/с
влажн.,
%
обл.,
%
осадки,
мм/ч
давл.,
гПа
погр.,
м
5 марта, пт
пт500:00+16юз613390 0.0 1009435
03:00+14юз47494 0.0 1011183
06:00+14з8136833 0.0 1013683
09:00+16зсз11135552 0.0 10161252
12:00+20сз1013333 0.0 10181786
15:00+21сз911241 0.0 10182028
18:00+19сз58290 0.0 1019230
21:00+17сз44350 0.0 102159
6 марта, сб
сб600:00+15зсз34400 0.0 102225
03:00+14сз45420 0.0 102241
06:00+13сз45400 0.0 102336
09:00+17сз56310 0.0 1025373
12:00+20сз56210 0.0 10241279
15:00+21ссз66260 0.0 10211553
18:00+19с46310 0.0 1021206
21:00+17ссз33340 0.0 102124
7 марта, вс
вс700:00+15сз23360 0.0 102023
03:00+14ссз12410 0.0 101923
06:00+12с12440 0.0 101923
09:00+17ююв11290 0.0 1019214
12:00+21ююз33220 0.0 10171008
15:00+23юз34190 0.0 10141244
18:00+22юв332023 0.0 101335
21:00+20юв452341 0.0 101440
8 марта, пн
пн800:00+18ююв45260 0.0 101351
03:00+16юв34310 0.0 101228
06:00+15ююв45320 0.0 101239
09:00+19ююв56240 0.0 1013308
12:00+24ююз78180 0.0 10111030
15:00+25зюз56163 0.0 10091448
18:00+21ссз69230 0.0 1010293
21:00+19сз510350 0.0 1012213
9 марта, вт
вт900:00+17с45430 0.0 101369
03:00+16ссз34460 0.0 101327
06:00+14зсз34550 0.0 101531
09:00+18сз45490 0.0 1017483
12:00+21сз55360 0.0 10171389
15:00+22зсз45300 0.0 10152130
18:00+20с45320 0.0 1016316
21:00+18ссв333631 0.0 101854